Weather at Myttinge Heliport

Public forecast

Using degrees Celsius for public forecast. Weather courtesy of forecast.io.

Closest aviation weather report (METAR) to Myttinge Heliport

Closest report is Stockholm-Bromma Airport, 16.4 nm (30.3 km) W. Retrieved 2022/08/12 03:20 UTC (21 minutes ago):

ESSB 120320Z AUTO VRB02KT 9999 NCD 13/12 Q1021

Closest aviation forecast (TAF) to Myttinge Heliport

Forecast is more than 12 hours old.

Closest forecast is Stockholm-Bromma Airport, 16.4 nm (30.3 km) W. Retrieved 2017/03/27 06:35 UTC (5 years ago):

TAF ESSB 270530Z 2706/2724 27008KT CAVOK BECMG 2710/2713 29015G25KT